RYR147 EDDK-LICJ

Flight info

Callsign RYR147
Flight time 2h 1m
Altitude 38000
Route KUMIK1R KUMIK Y854 BOMBI DCT GIGET DCT ABUKA DCT BATUB/N0445F390 DCT TIRUL M738 NATAG DCT LORLO DCT UNTAD DCT ADOSA DCT AMTEL DCT GIANO
Aircraft B738/M-SDE2E3FGHIRWXY/LB1

Departure

Time 2026-02-18 08:25
Airport Cologne Bonn Airport (EDDK)

Arrival

Time 2026-02-18 10:26
Airport Falcone–Borsellino Airport (LICJ)
Time Latitude Longitude Altitude Speed Heading
2026-02-18 08:00 50.88107 7.12096 231 ft 0 kts 216°
2026-02-18 08:11 50.88111 7.12099 231 ft 2 kts 216°
2026-02-18 08:11 50.88125 7.12118 233 ft 3 kts 220°
2026-02-18 08:12 50.88138 7.12135 232 ft 3 kts 209°
2026-02-18 08:12 50.88152 7.12141 231 ft 3 kts 149°
2026-02-18 08:12 50.88177 7.12100 231 ft 1 kts 126°
2026-02-18 08:13 50.88178 7.12098 232 ft 1 kts 126°
2026-02-18 08:16 50.88163 7.12131 231 ft 10 kts 126°
2026-02-18 08:16 50.88120 7.12225 231 ft 11 kts 126°
2026-02-18 08:16 50.88092 7.12330 231 ft 10 kts 115°
2026-02-18 08:17 50.88049 7.12426 232 ft 12 kts 131°
2026-02-18 08:17 50.87884 7.12608 231 ft 18 kts 176°
2026-02-18 08:17 50.87769 7.12697 231 ft 20 kts 137°
2026-02-18 08:18 50.87660 7.12860 231 ft 23 kts 138°
2026-02-18 08:18 50.87537 7.13035 231 ft 25 kts 138°
2026-02-18 08:18 50.87415 7.13213 231 ft 23 kts 137°
2026-02-18 08:18 50.87298 7.13380 231 ft 22 kts 139°
2026-02-18 08:19 50.87185 7.13544 240 ft 22 kts 134°
2026-02-18 08:19 50.87075 7.13702 240 ft 21 kts 139°
2026-02-18 08:19 50.86968 7.13856 245 ft 20 kts 136°
2026-02-18 08:19 50.86866 7.14008 254 ft 20 kts 136°
2026-02-18 08:20 50.86758 7.14130 254 ft 19 kts 166°
2026-02-18 08:20 50.86655 7.14253 260 ft 19 kts 122°
2026-02-18 08:20 50.86568 7.14396 261 ft 18 kts 144°
2026-02-18 08:20 50.86471 7.14514 267 ft 17 kts 137°
2026-02-18 08:21 50.86386 7.14640 272 ft 17 kts 139°
2026-02-18 08:21 50.86185 7.14930 283 ft 20 kts 137°
2026-02-18 08:21 50.86081 7.15081 287 ft 20 kts 139°
2026-02-18 08:22 50.85978 7.15225 290 ft 19 kts 140°
2026-02-18 08:22 50.85881 7.15368 294 ft 19 kts 133°
2026-02-18 08:22 50.85788 7.15508 299 ft 18 kts 137°
2026-02-18 08:22 50.85695 7.15640 300 ft 18 kts 137°
2026-02-18 08:23 50.85576 7.15815 304 ft 25 kts 138°
2026-02-18 08:23 50.85489 7.15978 308 ft 17 kts 92°
2026-02-18 08:23 50.85556 7.16126 307 ft 16 kts 45°
2026-02-18 08:23 50.85632 7.16256 307 ft 16 kts 48°
2026-02-18 08:24 50.85717 7.16283 309 ft 14 kts 318°
2026-02-18 08:24 50.85867 7.16063 302 ft 61 kts 317°
2026-02-18 08:24 50.86360 7.15353 285 ft 128 kts 318°
2026-02-18 08:24 50.87142 7.14224 406 ft 167 kts 318°
2026-02-18 08:25 50.88014 7.12985 1115 ft 168 kts 318°
2026-02-18 08:25 50.89983 7.11137 2408 ft 188 kts
2026-02-18 08:25 50.91255 7.11940 2793 ft 205 kts 27°
2026-02-18 08:26 50.92570 7.12918 3303 ft 211 kts 26°
2026-02-18 08:26 50.93692 7.14418 3740 ft 221 kts 57°
2026-02-18 08:26 50.94405 7.16665 4066 ft 234 kts 64°
2026-02-18 08:26 50.95129 7.19014 4576 ft 241 kts 64°
2026-02-18 08:27 50.95901 7.21487 4879 ft 258 kts 64°
2026-02-18 08:27 50.96716 7.24078 5526 ft 265 kts 63°
2026-02-18 08:27 50.97542 7.26693 6436 ft 265 kts 62°
2026-02-18 08:27 50.98367 7.29306 7263 ft 266 kts 62°
2026-02-18 08:28 50.99199 7.31942 8036 ft 269 kts 62°
2026-02-18 08:28 51.00040 7.34606 8826 ft 271 kts 62°
2026-02-18 08:28 51.00875 7.37308 9621 ft 275 kts 66°
2026-02-18 08:28 51.01123 7.40329 10291 ft 286 kts 97°
2026-02-18 08:29 51.00360 7.43326 10495 ft 314 kts 124°
2026-02-18 08:29 50.96807 7.47842 11506 ft 339 kts 150°
2026-02-18 08:29 50.94703 7.49578 12266 ft 343 kts 153°
2026-02-18 08:30 50.92547 7.51262 13034 ft 347 kts 154°
2026-02-18 08:30 50.90367 7.52960 13805 ft 352 kts 154°
2026-02-18 08:30 50.88159 7.54701 14482 ft 358 kts 154°
2026-02-18 08:30 50.85902 7.56505 15026 ft 368 kts 154°
2026-02-18 08:31 50.83608 7.58360 15703 ft 373 kts 154°
2026-02-18 08:31 50.81283 7.60253 16403 ft 378 kts 155°
2026-02-18 08:31 50.78927 7.62181 17042 ft 385 kts 155°
2026-02-18 08:31 50.76531 7.64145 17698 ft 391 kts 155°
2026-02-18 08:32 50.74099 7.66141 18336 ft 397 kts 156°
2026-02-18 08:32 50.71628 7.68168 18894 ft 402 kts 156°
2026-02-18 08:32 50.69138 7.70211 19523 ft 406 kts 156°
2026-02-18 08:32 50.66619 7.72276 20144 ft 410 kts 156°
2026-02-18 08:33 50.64075 7.74358 20738 ft 414 kts 156°
2026-02-18 08:33 50.58921 7.78569 21998 ft 420 kts 157°
2026-02-18 08:33 50.56314 7.80696 22610 ft 423 kts 158°
2026-02-18 08:34 50.53688 7.82834 23143 ft 428 kts 158°
2026-02-18 08:34 50.51028 7.84996 23666 ft 432 kts 158°
2026-02-18 08:34 50.48346 7.87174 24133 ft 435 kts 158°
2026-02-18 08:34 50.45646 7.89364 24638 ft 438 kts 158°
2026-02-18 08:35 50.42957 7.91541 24988 ft 444 kts 158°
2026-02-18 08:35 50.40193 7.93776 25389 ft 449 kts 158°
2026-02-18 08:35 50.37415 7.96021 25867 ft 450 kts 158°
2026-02-18 08:35 50.34626 7.98275 26369 ft 451 kts 159°
2026-02-18 08:36 50.31831 8.00529 26847 ft 453 kts 159°
2026-02-18 08:36 50.29018 8.02793 27241 ft 457 kts 159°
2026-02-18 08:36 50.26178 8.05074 27630 ft 460 kts 159°
2026-02-18 08:36 50.23320 8.07367 28039 ft 463 kts 159°
2026-02-18 08:37 50.20438 8.09677 28448 ft 466 kts 159°
2026-02-18 08:37 50.14637 8.14317 29209 ft 472 kts 159°
2026-02-18 08:37 50.11706 8.16656 29515 ft 475 kts 160°
2026-02-18 08:38 50.08753 8.19010 29861 ft 477 kts 160°
2026-02-18 08:38 50.05792 8.21367 30176 ft 480 kts 160°
2026-02-18 08:38 50.02804 8.23742 30462 ft 483 kts 160°
2026-02-18 08:38 49.99801 8.26126 30707 ft 486 kts 160°
2026-02-18 08:39 49.96779 8.28521 30968 ft 489 kts 160°
2026-02-18 08:39 49.93741 8.30927 31244 ft 492 kts 160°
2026-02-18 08:39 49.90681 8.33346 31487 ft 494 kts 160°
2026-02-18 08:39 49.87620 8.35763 31682 ft 497 kts 160°
2026-02-18 08:40 49.84520 8.38205 31883 ft 500 kts 160°
2026-02-18 08:40 49.81414 8.40651 32168 ft 501 kts 160°
2026-02-18 08:40 49.78308 8.43094 32539 ft 500 kts 160°
2026-02-18 08:40 49.75213 8.45526 32913 ft 500 kts 160°
2026-02-18 08:41 49.72106 8.47962 33217 ft 501 kts 160°
2026-02-18 08:41 49.65880 8.52830 33824 ft 502 kts 160°
2026-02-18 08:41 49.62762 8.55262 34047 ft 503 kts 160°
2026-02-18 08:42 49.59627 8.57703 34207 ft 506 kts 160°
2026-02-18 08:42 49.56480 8.60152 34479 ft 506 kts 160°
2026-02-18 08:42 49.53348 8.62590 34828 ft 504 kts 160°
2026-02-18 08:42 49.50217 8.65022 35143 ft 502 kts 160°
2026-02-18 08:43 49.47098 8.67437 35400 ft 502 kts 160°
2026-02-18 08:43 49.43977 8.69655 35639 ft 500 kts 163°
2026-02-18 08:43 49.40783 8.71714 35862 ft 498 kts 165°
2026-02-18 08:43 49.37550 8.73709 36007 ft 501 kts 165°
2026-02-18 08:44 49.34307 8.75681 36173 ft 502 kts 165°
2026-02-18 08:44 49.31065 8.77658 36440 ft 501 kts 165°
2026-02-18 08:44 49.27832 8.79648 36735 ft 500 kts 165°
2026-02-18 08:44 49.24615 8.81644 37038 ft 498 kts 165°
2026-02-18 08:45 49.21407 8.83643 37311 ft 497 kts 165°
2026-02-18 08:45 49.14997 8.87642 37672 ft 499 kts 165°
2026-02-18 08:45 49.11781 8.89644 37867 ft 499 kts 164°
2026-02-18 08:46 49.08573 8.91640 38012 ft 501 kts 164°
2026-02-18 08:46 49.05328 8.93653 37981 ft 503 kts 164°
2026-02-18 08:46 48.98847 8.97668 37983 ft 501 kts 164°
2026-02-18 08:47 48.92468 9.01615 37961 ft 496 kts 165°
2026-02-18 08:47 48.86034 9.05576 37984 ft 496 kts 165°
2026-02-18 08:48 48.79676 9.09477 38001 ft 496 kts 165°
2026-02-18 08:48 48.73222 9.13148 37989 ft 494 kts 169°
2026-02-18 08:49 48.63434 9.17885 38004 ft 494 kts 170°
2026-02-18 08:50 48.56879 9.21057 37994 ft 496 kts 169°
2026-02-18 08:50 48.50315 9.24292 37994 ft 497 kts 169°
2026-02-18 08:51 48.43733 9.27554 37996 ft 498 kts 169°
2026-02-18 08:51 48.37140 9.30814 37987 ft 499 kts 169°
2026-02-18 08:52 48.30535 9.34069 37995 ft 499 kts 169°
2026-02-18 08:52 48.23923 9.37317 37960 ft 498 kts 169°
2026-02-18 08:53 48.17354 9.40533 37979 ft 498 kts 170°
2026-02-18 08:53 48.07492 9.45344 37989 ft 496 kts 169°
2026-02-18 08:54 48.00930 9.48535 37992 ft 495 kts 170°
2026-02-18 08:54 47.94384 9.51710 37988 ft 494 kts 170°
2026-02-18 08:55 47.87843 9.54873 37990 ft 494 kts 170°
2026-02-18 08:55 47.81307 9.58025 37941 ft 493 kts 170°
2026-02-18 08:56 47.74788 9.61162 37992 ft 493 kts 170°
2026-02-18 08:56 47.68262 9.64292 37992 ft 493 kts 170°
2026-02-18 08:57 47.58454 9.68982 37969 ft 494 kts 170°
2026-02-18 08:58 47.51920 9.72098 37992 ft 493 kts 170°
2026-02-18 08:58 47.45430 9.75183 37994 ft 493 kts 170°
2026-02-18 08:59 47.38893 9.78283 37996 ft 494 kts 170°
2026-02-18 08:59 47.32344 9.81380 37983 ft 494 kts 170°
2026-02-18 09:00 47.25804 9.84466 37954 ft 494 kts 170°
2026-02-18 09:00 47.19281 9.87539 37992 ft 491 kts 170°
2026-02-18 09:01 47.12771 9.90593 37977 ft 490 kts 170°
2026-02-18 09:01 47.03016 9.95154 37956 ft 491 kts 170°
2026-02-18 09:02 46.96509 9.98189 37940 ft 490 kts 170°
2026-02-18 09:02 46.90050 10.01198 37961 ft 484 kts 171°
2026-02-18 09:03 46.83610 10.04184 37953 ft 485 kts 171°
2026-02-18 09:03 46.77163 10.07164 37946 ft 487 kts 171°
2026-02-18 09:04 46.70712 10.10141 37944 ft 487 kts 171°
2026-02-18 09:04 46.64285 10.13100 37947 ft 488 kts 171°
2026-02-18 09:05 46.54570 10.17561 37961 ft 486 kts 171°
2026-02-18 09:06 46.48129 10.20511 37918 ft 484 kts 171°
2026-02-18 09:06 46.42803 10.22945 37953 ft 482 kts 171°
2026-02-18 09:07 46.36419 10.25853 37953 ft 480 kts 171°
2026-02-18 09:07 46.30030 10.28752 37934 ft 483 kts 171°
2026-02-18 09:08 46.23598 10.31663 37931 ft 486 kts 171°
2026-02-18 09:08 46.17143 10.34581 37941 ft 486 kts 171°
2026-02-18 09:09 46.10678 10.37499 37976 ft 488 kts 171°
2026-02-18 09:09 46.00950 10.41875 37967 ft 489 kts 171°
2026-02-18 09:10 45.94457 10.44786 37971 ft 489 kts 171°
2026-02-18 09:10 45.87987 10.47680 37928 ft 490 kts 171°
2026-02-18 09:11 45.81484 10.50582 37980 ft 489 kts 171°
2026-02-18 09:11 45.74975 10.53479 37983 ft 489 kts 171°
2026-02-18 09:12 45.68477 10.56364 37982 ft 489 kts 171°
2026-02-18 09:12 45.61997 10.59235 37966 ft 486 kts 171°
2026-02-18 09:13 45.52335 10.63503 37992 ft 484 kts 171°
2026-02-18 09:14 45.45910 10.66329 37952 ft 483 kts 171°
2026-02-18 09:14 45.39483 10.69150 37986 ft 484 kts 171°
2026-02-18 09:15 45.33034 10.71973 38001 ft 486 kts 171°
2026-02-18 09:15 45.26558 10.74802 37959 ft 488 kts 171°
2026-02-18 09:16 45.20064 10.77634 37987 ft 490 kts 171°
2026-02-18 09:16 45.13532 10.80475 37993 ft 491 kts 171°
2026-02-18 09:17 45.06982 10.83318 37993 ft 493 kts 171°
2026-02-18 09:17 44.97132 10.87581 37972 ft 494 kts 171°
2026-02-18 09:18 44.90561 10.90416 37976 ft 494 kts 171°
2026-02-18 09:18 44.84036 10.93225 37960 ft 493 kts 171°
2026-02-18 09:19 44.77435 10.96059 37963 ft 492 kts 171°
2026-02-18 09:19 44.70885 10.98864 37971 ft 492 kts 171°
2026-02-18 09:20 44.64388 11.01640 37943 ft 491 kts 171°
2026-02-18 09:20 44.57860 11.04423 37963 ft 490 kts 171°
2026-02-18 09:21 44.48083 11.08578 37979 ft 489 kts 171°
2026-02-18 09:22 44.41569 11.11338 37974 ft 488 kts 171°
2026-02-18 09:22 44.31796 11.15466 37978 ft 490 kts 171°
2026-02-18 09:23 44.25262 11.18218 37975 ft 492 kts 171°
2026-02-18 09:23 44.18703 11.20975 37992 ft 493 kts 171°
2026-02-18 09:24 44.12133 11.23730 37992 ft 494 kts 171°
2026-02-18 09:24 44.05556 11.26483 37960 ft 493 kts 171°
2026-02-18 09:25 43.95717 11.30589 38020 ft 492 kts 171°
2026-02-18 09:26 43.89155 11.33318 37998 ft 492 kts 171°
2026-02-18 09:26 43.82597 11.36040 37989 ft 490 kts 171°
2026-02-18 09:27 43.76067 11.38744 38013 ft 490 kts 171°
2026-02-18 09:27 43.69542 11.41439 38010 ft 489 kts 171°
2026-02-18 09:28 43.63020 11.44128 37986 ft 489 kts 171°
2026-02-18 09:28 43.56554 11.46787 38017 ft 488 kts 171°
2026-02-18 09:29 43.50005 11.49474 38007 ft 488 kts 171°
2026-02-18 09:29 43.40284 11.53452 38007 ft 487 kts 171°
2026-02-18 09:30 43.33783 11.56105 37998 ft 488 kts 171°
2026-02-18 09:30 43.27274 11.58756 38002 ft 488 kts 171°
2026-02-18 09:31 43.20751 11.61287 37993 ft 483 kts 176°
2026-02-18 09:31 43.14159 11.62743 37993 ft 479 kts 180°
2026-02-18 09:32 43.07555 11.63967 38001 ft 479 kts 180°
2026-02-18 09:32 43.00943 11.65239 37983 ft 480 kts 180°
2026-02-18 09:33 42.91031 11.67246 37997 ft 480 kts 180°
2026-02-18 09:34 42.84427 11.68599 38007 ft 480 kts 180°
2026-02-18 09:34 42.77823 11.69947 38008 ft 480 kts 180°
2026-02-18 09:35 42.71216 11.71290 38012 ft 480 kts 180°
2026-02-18 09:35 42.64642 11.72621 38012 ft 482 kts 180°
2026-02-18 09:36 42.58006 11.73963 38004 ft 482 kts 180°
2026-02-18 09:36 42.51364 11.75305 38011 ft 483 kts 180°
2026-02-18 09:37 42.44710 11.76645 38022 ft 484 kts 180°
2026-02-18 09:37 42.34718 11.78653 38016 ft 484 kts 180°
2026-02-18 09:38 42.28054 11.79988 38012 ft 484 kts 180°
2026-02-18 09:38 42.21389 11.81322 38017 ft 484 kts 180°
2026-02-18 09:39 42.14736 11.82649 38003 ft 483 kts 180°
2026-02-18 09:39 42.08074 11.83975 37994 ft 483 kts 180°
2026-02-18 09:40 42.01421 11.85297 37977 ft 483 kts 180°
2026-02-18 09:40 41.94827 11.86605 37975 ft 481 kts 180°
2026-02-18 09:41 41.84937 11.88561 37973 ft 480 kts 180°
2026-02-18 09:42 41.78327 11.89864 37955 ft 480 kts 180°
2026-02-18 09:42 41.71724 11.91163 38005 ft 479 kts 180°
2026-02-18 09:43 41.65139 11.92456 38033 ft 479 kts 180°
2026-02-18 09:43 41.58543 11.93748 38037 ft 479 kts 180°
2026-02-18 09:44 41.51929 11.95041 38041 ft 479 kts 180°
2026-02-18 09:44 41.45326 11.96329 38050 ft 480 kts 180°
2026-02-18 09:45 41.38705 11.97618 38053 ft 481 kts 180°
2026-02-18 09:45 41.28761 11.99550 38055 ft 482 kts 180°
2026-02-18 09:46 41.22122 12.00836 38069 ft 483 kts 180°
2026-02-18 09:46 41.15472 12.02122 38066 ft 484 kts 180°
2026-02-18 09:47 41.08852 12.03400 38064 ft 484 kts 180°
2026-02-18 09:47 41.02185 12.04684 38082 ft 484 kts 180°
2026-02-18 09:48 40.95508 12.05967 38076 ft 485 kts 180°
2026-02-18 09:48 40.88832 12.07248 38075 ft 484 kts 180°
2026-02-18 09:49 40.78823 12.09164 38084 ft 484 kts 180°
2026-02-18 09:50 40.72155 12.10436 38087 ft 484 kts 180°
2026-02-18 09:50 40.65492 12.11706 38085 ft 483 kts 180°
2026-02-18 09:51 40.58842 12.12969 38089 ft 483 kts 180°
2026-02-18 09:51 40.52187 12.14231 38090 ft 483 kts 180°
2026-02-18 09:52 40.45539 12.15489 38084 ft 482 kts 180°
2026-02-18 09:52 40.38899 12.16744 38085 ft 482 kts 180°
2026-02-18 09:53 40.32267 12.17994 38099 ft 482 kts 180°
2026-02-18 09:53 40.22321 12.19865 38102 ft 480 kts 180°
2026-02-18 09:54 40.15707 12.21106 38096 ft 480 kts 180°
2026-02-18 09:54 40.09091 12.22344 38102 ft 480 kts 180°
2026-02-18 09:55 40.02484 12.23579 38105 ft 480 kts 180°
2026-02-18 09:55 39.95876 12.24811 38110 ft 479 kts 180°
2026-02-18 09:56 39.89274 12.26040 38071 ft 480 kts 180°
2026-02-18 09:56 39.87068 12.26447 37689 ft 485 kts 180°
2026-02-18 09:56 39.83730 12.27065 37163 ft 483 kts 180°
2026-02-18 09:57 39.79334 12.27884 36398 ft 480 kts 179°
2026-02-18 09:57 39.72733 12.29110 35208 ft 480 kts 179°
2026-02-18 09:57 39.70500 12.29522 34784 ft 480 kts 179°
2026-02-18 09:58 39.66126 12.30330 34129 ft 477 kts 179°
2026-02-18 09:58 39.63915 12.30740 33782 ft 474 kts 179°
2026-02-18 09:58 39.60660 12.31343 33285 ft 471 kts 179°
2026-02-18 09:58 39.57434 12.31940 32815 ft 466 kts 179°
2026-02-18 09:59 39.54238 12.32530 32381 ft 461 kts 179°
2026-02-18 09:59 39.51075 12.33113 31945 ft 457 kts 179°
2026-02-18 09:59 39.47937 12.33690 31524 ft 453 kts 179°
2026-02-18 09:59 39.44829 12.34260 31090 ft 450 kts 178°
2026-02-18 10:00 39.41741 12.34826 30669 ft 446 kts 178°
2026-02-18 10:00 39.38676 12.35387 30249 ft 443 kts 178°
2026-02-18 10:00 39.35680 12.35935 29751 ft 440 kts 178°
2026-02-18 10:00 39.32666 12.36487 29340 ft 434 kts 178°
2026-02-18 10:01 39.29692 12.37031 28880 ft 430 kts 178°
2026-02-18 10:01 39.23824 12.38103 28018 ft 422 kts 178°
2026-02-18 10:01 39.20933 12.38630 27584 ft 418 kts 178°
2026-02-18 10:02 39.18066 12.39152 27165 ft 415 kts 178°
2026-02-18 10:02 39.15219 12.39670 26747 ft 411 kts 178°
2026-02-18 10:02 39.12399 12.40182 26325 ft 408 kts 178°
2026-02-18 10:02 39.09597 12.40691 25921 ft 405 kts 178°
2026-02-18 10:03 39.06815 12.41196 25519 ft 402 kts 178°
2026-02-18 10:03 39.04058 12.41696 25116 ft 400 kts 178°
2026-02-18 10:03 39.01309 12.42194 24714 ft 398 kts 178°
2026-02-18 10:03 38.98575 12.42689 24317 ft 395 kts 178°
2026-02-18 10:04 38.95857 12.43181 23918 ft 394 kts 178°
2026-02-18 10:04 38.93151 12.43670 23468 ft 392 kts 178°
2026-02-18 10:04 38.90458 12.44157 23003 ft 390 kts 178°
2026-02-18 10:04 38.87786 12.44691 22598 ft 390 kts 172°
2026-02-18 10:05 38.85284 12.46083 22242 ft 396 kts 151°
2026-02-18 10:05 38.80775 12.50081 21453 ft 393 kts 148°
2026-02-18 10:05 38.78547 12.52098 21058 ft 391 kts 148°
2026-02-18 10:06 38.76325 12.54097 20663 ft 389 kts 148°
2026-02-18 10:06 38.74108 12.56074 20273 ft 387 kts 149°
2026-02-18 10:06 38.71896 12.58035 19886 ft 386 kts 149°
2026-02-18 10:06 38.69695 12.59977 19500 ft 384 kts 149°
2026-02-18 10:07 38.67496 12.61913 19117 ft 382 kts 149°
2026-02-18 10:07 38.65310 12.63835 18715 ft 381 kts 149°
2026-02-18 10:07 38.63128 12.65751 18326 ft 379 kts 149°
2026-02-18 10:07 38.60957 12.67657 17896 ft 378 kts 149°
2026-02-18 10:08 38.58823 12.69528 17490 ft 376 kts 149°
2026-02-18 10:08 38.56675 12.71412 17098 ft 374 kts 148°
2026-02-18 10:08 38.54539 12.73284 16713 ft 371 kts 148°
2026-02-18 10:08 38.52416 12.75142 16325 ft 369 kts 148°
2026-02-18 10:09 38.50301 12.76991 15950 ft 367 kts 148°
2026-02-18 10:09 38.47248 12.82052 15173 ft 368 kts 104°
2026-02-18 10:09 38.46964 12.85253 14797 ft 361 kts 84°
2026-02-18 10:10 38.47434 12.88354 14418 ft 353 kts 64°
2026-02-18 10:10 38.48505 12.91108 14234 ft 341 kts 57°
2026-02-18 10:10 38.49576 12.93805 13890 ft 341 kts 60°
2026-02-18 10:10 38.50480 12.96603 13514 ft 341 kts 65°
2026-02-18 10:11 38.51232 12.99479 13150 ft 341 kts 69°
2026-02-18 10:11 38.51860 13.02403 12772 ft 341 kts 72°
2026-02-18 10:11 38.52376 13.05362 12396 ft 341 kts 75°
2026-02-18 10:11 38.52781 13.08346 12020 ft 341 kts 77°
2026-02-18 10:12 38.53076 13.11353 11638 ft 341 kts 80°
2026-02-18 10:12 38.53272 13.14376 11266 ft 341 kts 82°
2026-02-18 10:12 38.53382 13.17412 10842 ft 343 kts 84°
2026-02-18 10:12 38.53373 13.20454 10576 ft 340 kts 88°
2026-02-18 10:13 38.53230 13.23441 10365 ft 335 kts 91°
2026-02-18 10:13 38.52545 13.29216 10090 ft 321 kts 97°
2026-02-18 10:13 38.52085 13.31948 10002 ft 311 kts 99°
2026-02-18 10:14 38.51545 13.34694 9401 ft 322 kts 102°
2026-02-18 10:14 38.50907 13.37437 9021 ft 323 kts 105°
2026-02-18 10:14 38.50170 13.40138 8712 ft 321 kts 109°
2026-02-18 10:14 38.49350 13.42742 8396 ft 312 kts 111°
2026-02-18 10:15 38.48465 13.45215 8127 ft 302 kts 114°
2026-02-18 10:15 38.47526 13.47566 7832 ft 293 kts 117°
2026-02-18 10:15 38.46561 13.49798 7580 ft 290 kts 119°
2026-02-18 10:15 38.45393 13.51882 7280 ft 290 kts 139°
2026-02-18 10:16 38.43667 13.53072 6996 ft 279 kts 168°
2026-02-18 10:16 38.41786 13.53159 6722 ft 267 kts 192°
2026-02-18 10:16 38.40064 13.52382 6478 ft 260 kts 214°
2026-02-18 10:16 38.38650 13.51092 6418 ft 241 kts 220°
2026-02-18 10:17 38.37365 13.49851 6276 ft 223 kts 220°
2026-02-18 10:17 38.35085 13.47646 6034 ft 190 kts 221°
2026-02-18 10:17 38.34067 13.46665 5899 ft 179 kts 222°
2026-02-18 10:18 38.33070 13.45705 5577 ft 179 kts 222°
2026-02-18 10:18 38.32086 13.44761 5334 ft 175 kts 221°
2026-02-18 10:18 38.31124 13.43841 5154 ft 171 kts 221°
2026-02-18 10:18 38.30176 13.42934 5066 ft 171 kts 221°
2026-02-18 10:19 38.29219 13.42018 4958 ft 175 kts 221°
2026-02-18 10:19 38.28328 13.40977 4746 ft 172 kts 240°
2026-02-18 10:19 38.27842 13.39647 4626 ft 159 kts 250°
2026-02-18 10:19 38.27418 13.38402 4413 ft 148 kts 250°
2026-02-18 10:20 38.27019 13.37233 4252 ft 141 kts 250°
2026-02-18 10:20 38.26628 13.36081 4100 ft 143 kts 249°
2026-02-18 10:20 38.26243 13.34919 3898 ft 142 kts 257°
2026-02-18 10:20 38.26103 13.33682 3629 ft 142 kts 258°
2026-02-18 10:21 38.25741 13.32533 3410 ft 138 kts 244°
2026-02-18 10:21 38.24818 13.30376 3113 ft 141 kts 244°
2026-02-18 10:21 38.24345 13.29277 2905 ft 142 kts 247°
2026-02-18 10:22 38.23961 13.28148 2737 ft 137 kts 249°
2026-02-18 10:22 38.23587 13.27024 2558 ft 140 kts 248°
2026-02-18 10:22 38.23205 13.25877 2368 ft 141 kts 248°
2026-02-18 10:22 38.22828 13.24747 2190 ft 140 kts 249°
2026-02-18 10:23 38.22455 13.23627 2002 ft 137 kts 249°
2026-02-18 10:23 38.22087 13.22527 1822 ft 135 kts 250°
2026-02-18 10:23 38.21711 13.21401 1657 ft 141 kts 249°
2026-02-18 10:23 38.21326 13.20249 1459 ft 141 kts 248°
2026-02-18 10:24 38.20947 13.19119 1262 ft 135 kts 248°
2026-02-18 10:24 38.20582 13.18030 1118 ft 140 kts 247°
2026-02-18 10:24 38.20194 13.16873 1016 ft 142 kts 246°
2026-02-18 10:24 38.19814 13.15741 798 ft 140 kts 246°
2026-02-18 10:25 38.19430 13.14627 521 ft 137 kts 243°
2026-02-18 10:25 38.18690 13.12426 121 ft 134 kts 244°
2026-02-18 10:25 38.18323 13.11342 54 ft 133 kts 244°
2026-02-18 10:26 38.17965 13.10276 52 ft 117 kts 245°
2026-02-18 10:26 38.17744 13.09588 52 ft 55 kts 246°
2026-02-18 10:26 38.17648 13.09302 52 ft 32 kts 248°
2026-02-18 10:26 38.17567 13.09052 49 ft 29 kts 246°
2026-02-18 10:27 38.17510 13.08830 52 ft 23 kts 286°
2026-02-18 10:27 38.17639 13.08844 51 ft 22 kts 37°
2026-02-18 10:27 38.17747 13.08981 52 ft 22 kts 60°
2026-02-18 10:27 38.17802 13.09142 52 ft 18 kts 67°
2026-02-18 10:28 38.17852 13.09286 52 ft 18 kts 66°
2026-02-18 10:28 38.17898 13.09427 52 ft 17 kts 70°
2026-02-18 10:28 38.17941 13.09562 51 ft 16 kts 67°
2026-02-18 10:28 38.17986 13.09691 52 ft 16 kts 68°
2026-02-18 10:29 38.18044 13.09847 51 ft 25 kts 55°
2026-02-18 10:29 38.18180 13.10272 50 ft 25 kts 66°
2026-02-18 10:29 38.18259 13.10364 52 ft 13 kts 357°
2026-02-18 10:30 38.18318 13.10438 52 ft 13 kts 66°
2026-02-18 10:30 38.18391 13.10501 52 ft 15 kts 19°
2026-02-18 10:30 38.18456 13.10569 52 ft 13 kts 64°
2026-02-18 10:30 38.18481 13.10634 52 ft 5 kts 38°
2026-02-18 10:31 38.18516 13.10629 50 ft 5 kts 338°
2026-02-18 10:31 38.18548 13.10611 52 ft 5 kts 337°
2026-02-18 10:31 38.18555 13.10608 52 ft 0 kts 337°
2026-02-18 10:32 38.18552 13.10609 52 ft 0 kts 336°